Location: Norton
(51.3000°N, 0.8167°E)
Time: 13:41:14
(UTC+00:00)

Cosmos 1844 Rocket - Pass Details

Date: 03 March 2021
Orbit: 826 x 843 km, 71.0° (Epoch: 10 April)

Event Time Altitude Azimuth Distance (km) Brightness Sun altitude
Rises 18:20:16 0° 331° (NNW) 3,378 6.2 -6.9°
Reaches altitude 10° 18:22:46 10° 336° (NNW) 2,441 5.4 -7.3°
Maximum altitude 18:28:15 55° 54° (NE) 989 2.8 -8.2°
Drops below altitude 10° 18:33:43 10° 132° (SE) 2,427 4.7 -9.0°
Enters shadow 18:36:06 - 137° (SE) 3,326 5.4 -9.4°
